Weather History for KMCJ - February, 2013

Change the Weather History Date:

Sunday, February 17, 2013

  Actual Average (KHOU) Record (KHOU)
Temperature  
Mean Temperature 60 °F 57 °F  
Max Temperature 69 °F 67 °F 86 °F (1907)
Min Temperature 50 °F 47 °F 16 °F (1895)
Degree Days  
Heating Degree Days 6 9  
Month to date heating degree days 176  
Since 1 July heating degree days 1100  
Growing Degree Days 10 (Base 50)    
Moisture  
Dew Point 41 °F    
Average Humidity 52    
Maximum Humidity 67    
Minimum Humidity 28    
Precipitation  
Precipitation 0.00 in 0.12 in 0.87 in (1940)
Month to date precipitation 1.91  
Year to date precipitation 5.29  
Sea Level Pressure  
Sea Level Pressure 30.14 in    
Wind  
Wind Speed 11 mph (SSW)    
Max Wind Speed 24 mph    
Max Gust Speed 30 mph    
Visibility 10 miles    
Events      
T = Trace of Precipitation, MM = Missing Value Source: NWS Daily Summary

Daily Weather History Graph

Daily Weather History Graph

Search for Another Location

Airport or City:

Trip Planner

Search our weather history database for the weather conditions in past years. The results will help you decide how hot, cold, wet, or windy it might be!

Date:

Astronomy

Feb. 17, 2013 Rise Set
Actual Time 6:59 AM CST 6:12 PM CST
Civil Twilight 6:34 AM CST 6:36 PM CST
Nautical Twilight 6:06 AM CST 7:04 PM CST
Astronomical Twilight 5:39 AM CST 7:32 PM CST
Moon 11:27 AM CST (2/17) 12:34 AM CST (2/17)
Length of Visible Light 12h 02m
Length of Day
11h 13m
Waxing Crescent, 49% of the Moon is Illuminated
Feb 17
Waxing Crescent
Feb 17
First Quarter
Feb 25
Full
Mar 4
Last Quarter
Mar 11
New

Hourly Weather History & Observations

Time (CST) Temp. Dew Point Humidity Pressure Visibility Wind Dir Wind Speed Gust Speed Precip Events Conditions
12:15 AM 50.0 °F 33.8 °F 54% 30.23 in 10.0 mi WSW 11.5 mph 18.4 mph N/A   Clear
12:35 AM 50.0 °F 35.6 °F 58% 30.23 in 10.0 mi SSW 8.1 mph - N/A   Clear
12:55 AM 50.0 °F 35.6 °F 58% 30.22 in 10.0 mi SW 9.2 mph 16.1 mph N/A   Clear
1:15 AM 50.0 °F 37.4 °F 62% 30.22 in 10.0 mi WSW 8.1 mph 16.1 mph N/A   Clear
1:35 AM 50.0 °F 37.4 °F 62% 30.21 in 10.0 mi WSW 12.7 mph 17.3 mph N/A   Clear
1:55 AM 50.0 °F 37.4 °F 62% 30.21 in 10.0 mi SW 6.9 mph 19.6 mph N/A   Clear
2:15 AM 50.0 °F 37.4 °F 62% 30.20 in 10.0 mi SW 9.2 mph 16.1 mph N/A   Clear
2:35 AM 50.0 °F 39.2 °F 66% 30.20 in 10.0 mi SW 8.1 mph 17.3 mph N/A   Clear
2:55 AM 51.8 °F 39.2 °F 62% 30.19 in 10.0 mi SW 11.5 mph 19.6 mph N/A   Clear
3:15 AM 50.0 °F 39.2 °F 66% 30.19 in 10.0 mi SW 9.2 mph 17.3 mph N/A   Clear
3:35 AM 51.8 °F 39.2 °F 62% 30.19 in 10.0 mi SW 9.2 mph 20.7 mph N/A   Clear
3:55 AM 51.8 °F 37.4 °F 58% 30.19 in 10.0 mi SW 10.4 mph 17.3 mph N/A   Clear
4:15 AM 51.8 °F 37.4 °F 58% 30.19 in 10.0 mi SW 10.4 mph 17.3 mph N/A   Clear
4:35 AM 51.8 °F 39.2 °F 62% 30.19 in 10.0 mi WSW 9.2 mph 16.1 mph N/A   Clear
4:55 AM 51.8 °F 39.2 °F 62% 30.19 in 10.0 mi WSW 10.4 mph 16.1 mph N/A   Clear
5:15 AM 51.8 °F 39.2 °F 62% 30.19 in 10.0 mi WSW 5.8 mph - N/A   Clear
5:35 AM 50.0 °F 39.2 °F 66% 30.19 in 10.0 mi SW 9.2 mph - N/A   Clear
5:55 AM 51.8 °F 39.2 °F 62% 30.19 in 10.0 mi SW 9.2 mph 16.1 mph N/A   Clear
6:15 AM 51.8 °F 39.2 °F 62% 30.19 in 10.0 mi WSW 9.2 mph 17.3 mph N/A   Clear
6:35 AM 51.8 °F 39.2 °F 62% 30.19 in 10.0 mi WSW 11.5 mph 19.6 mph N/A   Clear
6:55 AM 53.6 °F 39.2 °F 58% 30.19 in 10.0 mi WSW 11.5 mph 18.4 mph N/A   Clear
7:15 AM 53.6 °F 39.2 °F 58% 30.19 in 10.0 mi WSW 10.4 mph 18.4 mph N/A   Clear
7:35 AM 53.6 °F 39.2 °F 58% 30.20 in 10.0 mi SW 11.5 mph 17.3 mph N/A   Clear
7:55 AM 53.6 °F 39.2 °F 58% 30.20 in 10.0 mi SW 9.2 mph 18.4 mph N/A   Clear
8:15 AM 55.4 °F 39.2 °F 54% 30.21 in 10.0 mi WSW 5.8 mph 16.1 mph N/A   Clear
8:35 AM 55.4 °F 39.2 °F 54% 30.21 in 10.0 mi SW 6.9 mph - N/A   Clear
8:55 AM 57.2 °F 41.0 °F 55% 30.22 in 10.0 mi WSW 4.6 mph - N/A   Clear
9:15 AM 59.0 °F 41.0 °F 51% 30.22 in 10.0 mi SW 8.1 mph - N/A   Clear
9:35 AM 60.8 °F 42.8 °F 52% 30.22 in 10.0 mi WSW 6.9 mph - N/A   Clear
9:55 AM 62.6 °F 42.8 °F 48% 30.22 in 10.0 mi SW 5.8 mph - N/A   Clear
10:15 AM 64.4 °F 39.2 °F 40% 30.22 in 10.0 mi SW 8.1 mph 21.9 mph N/A   Clear
10:35 AM 66.2 °F 39.2 °F 37% 30.21 in 10.0 mi SW 9.2 mph 18.4 mph N/A   Clear
10:55 AM 66.2 °F 37.4 °F 35% 30.21 in 10.0 mi SW 8.1 mph - N/A   Clear
11:15 AM 66.2 °F 37.4 °F 35% 30.20 in 10.0 mi WSW 9.2 mph 20.7 mph N/A   Clear
11:35 AM 68.0 °F 39.2 °F 35% 30.19 in 10.0 mi SW 5.8 mph 19.6 mph N/A   Clear
11:55 AM 68.0 °F 37.4 °F 33% 30.18 in 10.0 mi South 10.4 mph 19.6 mph N/A   Clear
12:15 PM 68.0 °F 39.2 °F 35% 30.17 in 10.0 mi SSW 9.2 mph 19.6 mph N/A   Clear
12:55 PM 69.8 °F 35.6 °F 28% 30.14 in 10.0 mi SW 8.1 mph 23.0 mph N/A   Clear
1:15 PM 68.0 °F 35.6 °F 30% 30.13 in 10.0 mi South 17.3 mph 25.3 mph N/A   Clear
1:35 PM 68.0 °F 37.4 °F 33% 30.12 in 10.0 mi SW 8.1 mph 24.2 mph N/A   Clear
1:55 PM 69.8 °F 37.4 °F 31% 30.11 in 10.0 mi South 15.0 mph 23.0 mph N/A   Clear
2:15 PM 68.0 °F 37.4 °F 33% 30.10 in 10.0 mi SW 11.5 mph 23.0 mph N/A   Clear
2:35 PM 69.8 °F 39.2 °F 33% 30.09 in 10.0 mi South 13.8 mph 23.0 mph N/A   Clear
2:55 PM 68.0 °F 39.2 °F 35% 30.09 in 10.0 mi South 19.6 mph 26.5 mph N/A   Clear
3:15 PM 68.0 °F 37.4 °F 33% 30.07 in 10.0 mi South 18.4 mph 27.6 mph N/A   Clear
3:35 PM 68.0 °F 39.2 °F 35% 30.07 in 10.0 mi South 16.1 mph 28.8 mph N/A   Clear
3:55 PM 68.0 °F 39.2 °F 35% 30.07 in 10.0 mi South 18.4 mph 27.6 mph N/A   Clear
4:15 PM 66.2 °F 39.2 °F 37% 30.07 in 10.0 mi South 16.1 mph 27.6 mph N/A   Clear
4:35 PM 66.2 °F 39.2 °F 37% 30.07 in 10.0 mi South 19.6 mph 28.8 mph N/A   Clear
4:55 PM 66.2 °F 39.2 °F 37% 30.07 in 10.0 mi South 24.2 mph 29.9 mph N/A   Clear
5:15 PM 64.4 °F 41.0 °F 42% 30.07 in 10.0 mi South 10.4 mph 25.3 mph N/A   Clear
5:35 PM 64.4 °F 42.8 °F 45% 30.07 in 10.0 mi South 16.1 mph 27.6 mph N/A   Partly Cloudy
5:55 PM 62.6 °F 42.8 °F 48% 30.07 in 10.0 mi South 17.3 mph 27.6 mph N/A   Partly Cloudy
6:15 PM 62.6 °F 42.8 °F 48% 30.07 in 10.0 mi South 15.0 mph 20.7 mph N/A   Scattered Clouds
6:35 PM 62.6 °F 44.6 °F 52% 30.07 in 10.0 mi South 16.1 mph 21.9 mph N/A   Scattered Clouds
6:55 PM 60.8 °F 44.6 °F 55% 30.07 in 10.0 mi South 16.1 mph 19.6 mph N/A   Clear
7:15 PM 60.8 °F 44.6 °F 55% 30.07 in 10.0 mi South 13.8 mph - N/A   Scattered Clouds
7:35 PM 60.8 °F 46.4 °F 59% 30.07 in 10.0 mi South 10.4 mph - N/A   Scattered Clouds
7:55 PM 59.0 °F 46.4 °F 63% 30.07 in 10.0 mi South 11.5 mph - N/A   Partly Cloudy
8:15 PM 59.0 °F 46.4 °F 63% 30.07 in 10.0 mi South 12.7 mph - N/A   Scattered Clouds
8:35 PM 59.0 °F 48.2 °F 67% 30.07 in 10.0 mi South 12.7 mph - N/A   Mostly Cloudy
8:55 PM 59.0 °F 48.2 °F 67% 30.06 in 10.0 mi South 10.4 mph - N/A   Overcast
9:15 PM 59.0 °F 48.2 °F 67% 30.06 in 10.0 mi South 11.5 mph - N/A   Overcast
9:35 PM 59.0 °F 48.2 °F 67% 30.06 in 10.0 mi South 11.5 mph 18.4 mph N/A   Overcast
9:55 PM 59.0 °F 48.2 °F 67% 30.06 in 10.0 mi South 13.8 mph - N/A   Overcast
10:15 PM 59.0 °F 48.2 °F 67% 30.06 in 10.0 mi SSE 9.2 mph - N/A   Overcast
10:35 PM 60.8 °F 48.2 °F 63% 30.06 in 10.0 mi South 12.7 mph 16.1 mph N/A   Overcast
10:55 PM 62.6 °F 50.0 °F 63% 30.05 in 10.0 mi South 17.3 mph 23.0 mph N/A   Overcast
11:15 PM 62.6 °F 50.0 °F 63% 30.04 in 10.0 mi South 15.0 mph 20.7 mph N/A   Overcast
11:35 PM 62.6 °F 50.0 °F 63% 30.03 in 10.0 mi South 13.8 mph 21.9 mph N/A   Overcast
11:55 PM 62.6 °F 50.0 °F 63% 30.02 in 10.0 mi South 13.8 mph 21.9 mph N/A   Overcast